Flag for Russia Weather past 2 weeks in Samara, Russia

37 °F

Mostly cloudy.

Feels Like: 30 °F
Forecast: 32 / 36 °F
Wind: 10 mph from North

Location: Samara

Current Time: Oct 7, 2015 at 2:59:04 PM

Latest Report: Oct 7, 2015 at 2:30 PM

Visibility: N/A

Pressure: 29.71 "Hg

Humidity: 81%

Dew point: 32 °F

Location of SamaraLocation

Historic Weather in Samara — Graph


Samara temperature yesterday

Maximum temperature yesterday: 64 °F (at 2:30 PM)
Minimum temperature yesterday: 41 °F (at 11:30 PM)
Average temperature yesterday: 52 °F

Past Weeks' High & Low Weather Summary

High86 °F (Sep 24, 2:00 PM)93% (Oct 7, 7:30 AM)30.36 "Hg (Oct 7, 7:30 AM)
Low32 °F (Oct 7, 6:30 AM)14% (Sep 29, 1:00 PM)29.36 "Hg (Oct 3, 11:30 AM)
Average59 °F47%30.10 "Hg
* Reported Sep 22 2:00 PM — Oct 7 2:00 PM, Samara, Weather by CustomWeather, © 2015

Note: Actual official high and low records may vary slightly from our data, if they occured in-between our weather recording intervals... More about our weather records


Samara weather history for previous 24 hours

Time TempWeatherWind HumidityBarometerVisibility
2:00 PM
Wed, Oct 7
36 °FMostly cloudy.15 mph87%29.71 "HgN/A
1:30 PM36 °FSprinkles. Mostly cloudy.13 mph87%29.71 "HgN/A
1:00 PM36 °FSprinkles. Mostly cloudy.13 mph87%29.71 "HgN/A
12:30 PM36 °FSprinkles. Mostly cloudy.10 mph87%29.71 "HgN/A
12:00 PM34 °FSprinkles. Mostly cloudy.13 mph93%29.71 "HgN/A
11:30 AM34 °FSprinkles. Mostly cloudy.13 mph93%29.68 "HgN/A
11:00 AM34 °FSnow flurries. Mostly cloudy.13 mph93%29.68 "Hg3 mi
10:30 AM34 °FSnow flurries. Mostly cloudy.10 mph87%29.68 "Hg2 mi
10:00 AM32 °FSnow flurries. Mostly cloudy.10 mph93%29.68 "Hg3 mi
9:30 AM32 °FSnow showers. Mostly cloudy.13 mph93%29.68 "Hg1 mi
9:00 AM32 °FSnow flurries. Mostly cloudy.10 mph93%29.68 "Hg2 mi
8:30 AM32 °FSnow flurries. Low clouds.13 mph93%29.68 "Hg4 mi
8:00 AM32 °FSnow flurries. Low clouds.13 mph93%29.68 "Hg2 mi
7:30 AM32 °FSnow flurries. Low clouds.10 mph93%29.68 "HgN/A
7:00 AM32 °FSnow flurries. Low clouds.13 mph87%29.68 "Hg1 mi
6:30 AM32 °FSnow showers. Low clouds.10 mph87%29.68 "Hg1 mi
6:00 AM34 °FSprinkles. Low clouds.13 mph87%29.68 "Hg4 mi
5:30 AM34 °FSprinkles. Low clouds.13 mph87%29.68 "Hg5 mi
5:00 AM34 °FLight rain. Low clouds.13 mph87%29.68 "Hg5 mi
4:30 AM36 °FLight rain. Low clouds.13 mph87%29.68 "Hg4 mi
4:00 AM36 °FLight rain. Low clouds.13 mph87%29.68 "Hg4 mi
3:30 AM37 °FLight rain. Low clouds.13 mph81%29.68 "Hg4 mi
3:00 AM37 °FLight rain. Low clouds.10 mph81%29.68 "Hg4 mi
2:30 AM37 °FLight rain. Low clouds.10 mph87%29.68 "Hg4 mi
2:00 AM37 °FLight rain. Low clouds.13 mph87%29.68 "Hg5 mi
1:30 AM37 °FLight rain. Low clouds.10 mph87%29.71 "HgN/A
1:00 AM39 °FSprinkles. Low clouds.13 mph81%29.71 "HgN/A
12:30 AM39 °FLight rain. Low clouds.13 mph81%29.71 "HgN/A
12:00 AM41 °FMostly cloudy.15 mph81%29.71 "HgN/A
11:30 PM
Tue, Oct 6
41 °FLight rain. Low clouds.15 mph81%29.68 "HgN/A
11:00 PM43 °FLight rain. Low clouds.15 mph76%29.71 "HgN/A
10:30 PM43 °FLight rain. Low clouds.13 mph81%29.71 "HgN/A
10:00 PM43 °FLow clouds.13 mph81%29.71 "HgN/A
9:30 PM45 °FLow clouds.15 mph81%29.71 "HgN/A
9:00 PM48 °FLow clouds.8 mph82%29.71 "HgN/A
8:30 PM48 °FLight rain. Mostly cloudy.6 mph82%29.71 "HgN/A
8:00 PM48 °FFog.6 mph82%29.71 "Hg3 mi
7:30 PM50 °FLight rain. Fog.8 mph82%29.71 "Hg3 mi
7:00 PM50 °FSprinkles. More clouds than sun.6 mph82%29.71 "HgN/A
6:30 PM52 °FMore clouds than sun.3 mph77%29.68 "HgN/A
6:00 PM54 °FLight rain. More clouds than sun.6 mph77%29.68 "HgN/A
5:30 PM54 °FLight rain. More clouds than sun.6 mph72%29.68 "HgN/A
5:00 PM55 °FLight rain. More clouds than sun.6 mph63%29.71 "HgN/A
4:30 PM61 °FLight rain. More clouds than sun.6 mph42%29.68 "HgN/A
4:00 PM59 °FLight rain. More clouds than sun.3 mph45%29.68 "HgN/A
3:30 PM61 °FMore clouds than sun.6 mph39%29.71 "HgN/A
3:00 PM64 °FPartly sunny.17 mph32%29.71 "HgN/A
2:30 PM64 °FPartly sunny.13 mph34%29.71 "HgN/A
2:00 PM63 °FPartly sunny.8 mph34%29.71 "HgN/A
Weather by CustomWeather, © 2015

See weather overviewHow to use our weather pages